When you browse on this site, cookies collect data to enhance your experience and personalize the content and advertising you see.
Visit our Privacy Policy to learn more. By continuing to use the site, you agree to this use of cookies and data.
  • en Suisse
  • Liste des pays
  • À 7 jours
  • Température de l'eau
  • Carte météo
  • Widgets météo
  • user-avatar
    Se connecter

    Météo par heure à Grachevka

    Ce jour, 26 Août, Lundi

    Heure Température Précipitation Vent Pression Humidité
    00:00 +13°C° 0 mm 3 m/s 755 mmHg 89%
    01:00 +13°C° 0 mm 2 m/s 755 mmHg 89%
    02:00 +13°C° 0 mm 2 m/s 756 mmHg 90%
    03:00 +12°C° 0 mm 1 m/s 756 mmHg 90%
    04:00 +12°C° 0 mm 1 m/s 756 mmHg 91%
    05:00 +12°C° 0 mm 1 m/s 756 mmHg 91%
    06:00 +11°C° 0 mm 1 m/s 756 mmHg 91%
    07:00 +13°C° 0 mm 1 m/s 756 mmHg 85%
    08:00 +14°C° 0 mm 1 m/s 756 mmHg 79%
    09:00 +16°C° 0 mm 1 m/s 757 mmHg 72%
    10:00 +18°C° 0 mm 1 m/s 756 mmHg 68%
    11:00 +18°C° 0 mm 0 m/s 756 mmHg 63%
    12:00 +19°C° 0 mm 0 m/s 756 mmHg 58%
    13:00 +21°C° 0 mm 1 m/s 756 mmHg 55%
    14:00 +22°C° 0 mm 1 m/s 755 mmHg 53%
    15:00 +22°C° 0 mm 1 m/s 755 mmHg 51%
    16:00 +21°C° 0 mm 2 m/s 755 mmHg 54%
    17:00 +21°C° 0 mm 2 m/s 754 mmHg 58%
    18:00 +20°C° 0 mm 2 m/s 754 mmHg 62%
    19:00 +19°C° 0 mm 2 m/s 753 mmHg 66%
    20:00 +19°C° 0 mm 1 m/s 753 mmHg 70%
    21:00 +16°C° 0 mm 1 m/s 753 mmHg 74%
    22:00 +16°C° 0 mm 2 m/s 753 mmHg 75%
    23:00 +16°C° 0 mm 2 m/s 752 mmHg 77%

    Demain, 27 Août, Mardi

    Heure Température Précipitation Vent Pression Humidité
    00:00 +16°C° 0 mm 3 m/s 752 mmHg 78%
    01:00 +16°C° 0 mm 3 m/s 752 mmHg 78%
    02:00 +14°C° 0 mm 3 m/s 751 mmHg 78%
    03:00 +14°C° 0 mm 4 m/s 751 mmHg 78%
    04:00 +14°C° 0 mm 4 m/s 750 mmHg 79%
    05:00 +15°C° 0 mm 4 m/s 750 mmHg 80%
    06:00 +15°C° 0 mm 4 m/s 749 mmHg 80%
    07:00 +16°C° 0 mm 5 m/s 749 mmHg 79%
    08:00 +17°C° 0 mm 5 m/s 749 mmHg 78%
    09:00 +19°C° 0 mm 5 m/s 749 mmHg 77%
    10:00 +20°C° 0.5 mm 5 m/s 749 mmHg 74%
    11:00 +20°C° 0.5 mm 5 m/s 748 mmHg 72%
    12:00 +21°C° 0.5 mm 5 m/s 748 mmHg 69%
    13:00 +22°C° 0.1 mm 6 m/s 748 mmHg 66%
    14:00 +22°C° 0.1 mm 6 m/s 748 mmHg 64%
    15:00 +22°C° 0.1 mm 6 m/s 748 mmHg 61%
    16:00 +22°C° 0 mm 5 m/s 748 mmHg 63%
    17:00 +21°C° 0 mm 4 m/s 748 mmHg 65%
    18:00 +20°C° 0 mm 3 m/s 748 mmHg 66%
    19:00 +19°C° 0 mm 4 m/s 749 mmHg 69%
    20:00 +18°C° 0 mm 4 m/s 749 mmHg 72%
    21:00 +15°C° 0 mm 4 m/s 749 mmHg 75%
    22:00 +14°C° 0 mm 3 m/s 749 mmHg 79%
    23:00 +13°C° 0 mm 3 m/s 750 mmHg 82%

    Après-demain, 28 Août, Mercredi

    Heure Température Précipitation Vent Pression Humidité
    00:00 +13°C° 0 mm 3 m/s 750 mmHg 85%
    01:00 +12°C° 0 mm 3 m/s 750 mmHg 86%
    02:00 +11°C° 0 mm 3 m/s 750 mmHg 86%
    03:00 +11°C° 0 mm 3 m/s 751 mmHg 86%
    04:00 +10°C° 0 mm 4 m/s 751 mmHg 87%
    05:00 +10°C° 0 mm 4 m/s 751 mmHg 88%
    06:00 +10°C° 0 mm 4 m/s 751 mmHg 89%
    07:00 +10°C° 0 mm 5 m/s 752 mmHg 81%
    08:00 +12°C° 0 mm 5 m/s 752 mmHg 73%
    09:00 +13°C° 0 mm 5 m/s 752 mmHg 65%
    10:00 +13°C° 0 mm 6 m/s 752 mmHg 62%
    11:00 +14°C° 0 mm 6 m/s 752 mmHg 58%
    12:00 +15°C° 0 mm 6 m/s 752 mmHg 54%
    13:00 +15°C° 0 mm 6 m/s 752 mmHg 53%
    14:00 +15°C° 0 mm 6 m/s 752 mmHg 51%
    15:00 +16°C° 0 mm 6 m/s 752 mmHg 49%
    16:00 +15°C° 0 mm 6 m/s 752 mmHg 52%
    17:00 +14°C° 0 mm 5 m/s 753 mmHg 55%
    18:00 +14°C° 0 mm 4 m/s 753 mmHg 58%
    19:00 +12°C° 0 mm 4 m/s 753 mmHg 62%
    20:00 +11°C° 0 mm 3 m/s 753 mmHg 67%
    21:00 +10°C° 0 mm 3 m/s 754 mmHg 71%
    22:00 +9°C° 0 mm 3 m/s 754 mmHg 74%
    23:00 +9°C° 0 mm 3 m/s 754 mmHg 76%

    29 Août, Jeudi

    Heure Température Précipitation Vent Pression Humidité
    00:00 +8°C° 0 mm 2 m/s 754 mmHg 79%
    01:00 +8°C° 0 mm 2 m/s 754 mmHg 81%
    02:00 +8°C° 0 mm 2 m/s 755 mmHg 83%
    03:00 +7°C° 0 mm 2 m/s 755 mmHg 85%
    04:00 +7°C° 0 mm 2 m/s 755 mmHg 86%
    05:00 +7°C° 0 mm 2 m/s 755 mmHg 87%
    06:00 +7°C° 0 mm 2 m/s 755 mmHg 89%
    07:00 +8°C° 0 mm 2 m/s 755 mmHg 81%
    08:00 +10°C° 0 mm 3 m/s 755 mmHg 74%
    09:00 +12°C° 0 mm 3 m/s 755 mmHg 67%
    10:00 +13°C° 0 mm 3 m/s 755 mmHg 61%
    11:00 +14°C° 0 mm 3 m/s 755 mmHg 55%
    12:00 +17°C° 0 mm 3 m/s 755 mmHg 49%
    13:00 +17°C° 0 mm 3 m/s 754 mmHg 50%
    14:00 +18°C° 0 mm 3 m/s 754 mmHg 50%
    15:00 +18°C° 0 mm 3 m/s 754 mmHg 51%
    16:00 +18°C° 0 mm 3 m/s 754 mmHg 56%
    17:00 +18°C° 0 mm 2 m/s 753 mmHg 61%
    18:00 +17°C° 0 mm 2 m/s 753 mmHg 66%
    19:00 +16°C° 0 mm 2 m/s 753 mmHg 71%
    20:00 +15°C° 0 mm 2 m/s 753 mmHg 75%
    21:00 +14°C° 0 mm 1 m/s 753 mmHg 79%
    22:00 +14°C° 0 mm 2 m/s 752 mmHg 81%
    23:00 +13°C° 0 mm 2 m/s 752 mmHg 82%

    30 Août, Vendredi

    Heure Température Précipitation Vent Pression Humidité
    00:00 +12°C° 0 mm 3 m/s 752 mmHg 84%
    01:00 +12°C° 0 mm 3 m/s 752 mmHg 85%
    02:00 +12°C° 0 mm 3 m/s 752 mmHg 85%
    03:00 +11°C° 0 mm 3 m/s 751 mmHg 86%
    04:00 +11°C° 0 mm 3 m/s 751 mmHg 87%
    05:00 +11°C° 0 mm 3 m/s 751 mmHg 88%
    06:00 +11°C° 0 mm 4 m/s 751 mmHg 88%
    07:00 +13°C° 0 mm 4 m/s 751 mmHg 82%
    08:00 +14°C° 0 mm 5 m/s 751 mmHg 76%
    09:00 +16°C° 0 mm 5 m/s 751 mmHg 70%
    10:00 +17°C° 0 mm 6 m/s 751 mmHg 66%
    11:00 +20°C° 0 mm 6 m/s 751 mmHg 63%
    12:00 +21°C° 0 mm 6 m/s 751 mmHg 59%
    13:00 +21°C° 0.1 mm 5 m/s 751 mmHg 61%
    14:00 +21°C° 0.1 mm 5 m/s 751 mmHg 63%
    15:00 +21°C° 0.1 mm 5 m/s 751 mmHg 65%
    16:00 +20°C° 0.2 mm 4 m/s 751 mmHg 69%
    17:00 +19°C° 0.2 mm 4 m/s 751 mmHg 73%
    18:00 +18°C° 0.2 mm 3 m/s 751 mmHg 78%
    19:00 +17°C° 0 mm 3 m/s 751 mmHg 81%
    20:00 +15°C° 0 mm 2 m/s 751 mmHg 84%
    21:00 +14°C° 0 mm 2 m/s 751 mmHg 86%
    22:00 +13°C° 0 mm 2 m/s 751 mmHg 84%
    23:00 +13°C° 0 mm 2 m/s 751 mmHg 82%

    31 Août, Samedi

    Heure Température Précipitation Vent Pression Humidité
    00:00 +12°C° 0 mm 2 m/s 752 mmHg 80%
    01:00 +12°C° 0 mm 2 m/s 752 mmHg 80%
    02:00 +10°C° 0 mm 2 m/s 752 mmHg 80%
    03:00 +10°C° 0 mm 2 m/s 751 mmHg 81%
    04:00 +10°C° 0 mm 2 m/s 751 mmHg 82%
    05:00 +10°C° 0 mm 2 m/s 751 mmHg 83%
    06:00 +10°C° 0 mm 2 m/s 751 mmHg 85%
    07:00 +13°C° 0 mm 2 m/s 751 mmHg 82%
    08:00 +14°C° 0 mm 2 m/s 751 mmHg 80%
    09:00 +16°C° 0 mm 2 m/s 751 mmHg 77%
    10:00 +18°C° 0 mm 2 m/s 751 mmHg 73%
    11:00 +19°C° 0 mm 2 m/s 751 mmHg 68%
    12:00 +21°C° 0 mm 2 m/s 751 mmHg 63%
    13:00 +21°C° 0 mm 2 m/s 750 mmHg 60%
    14:00 +22°C° 0 mm 3 m/s 750 mmHg 56%
    15:00 +24°C° 0 mm 3 m/s 750 mmHg 52%
    16:00 +22°C° 0 mm 3 m/s 749 mmHg 57%
    17:00 +22°C° 0 mm 3 m/s 749 mmHg 61%
    18:00 +21°C° 0 mm 2 m/s 749 mmHg 66%
    19:00 +20°C° 0 mm 2 m/s 749 mmHg 70%
    20:00 +18°C° 0 mm 2 m/s 749 mmHg 74%
    21:00 +17°C° 0 mm 2 m/s 749 mmHg 78%
    22:00 +16°C° 0 mm 2 m/s 749 mmHg 78%
    23:00 +16°C° 0 mm 2 m/s 749 mmHg 78%
    Voir plus